Change the Weather History Date:

Saturday, December 22, 2012

  Actual Average Record
Temperature  
Mean Temperature 5 °F -  
Max Temperature 12 °F 14 °F 37 °F (1991)
Min Temperature -4 °F -2 °F -32 °F (1963)
Degree Days  
Heating Degree Days 60    
Moisture  
Dew Point 2 °F    
Average Humidity 78    
Maximum Humidity 85    
Minimum Humidity 72    
Precipitation  
Precipitation 0.00 in - - ()
Sea Level Pressure  
Sea Level Pressure 30.08 in    
Wind  
Wind Speed 7 mph (WNW)    
Max Wind Speed 15 mph    
Max Gust Speed -    
Visibility 8 miles    
Events Snow    
Averages and records for this station are not official NWS values.
T = Trace of Precipitation, MM = Missing Value Source: NWS Daily Summary

Daily Weather History Graph

Daily Weather History Graph

Search for Another Location

Airport or City:

Trip Planner

Search our weather history database for the weather conditions in past years. The results will help you decide how hot, cold, wet, or windy it might be!

Date:

Astronomy

Dec. 22, 2012 Rise Set
Actual Time 8:14 AM CST 4:29 PM CST
Civil Twilight 7:36 AM CST 5:06 PM CST
Nautical Twilight 6:56 AM CST 5:46 PM CST
Astronomical Twilight 6:17 AM CST 6:25 PM CST
Moon 1:01 PM CST (12/22) 2:44 AM CST (12/22)
Length of Visible Light 9h 29m
Length of Day
8h 14m
Waxing Gibbous, 74% of the Moon is Illuminated
Dec 22
Waxing Gibbous
Dec 28
Full
Jan 4
Last Quarter
Jan 11
New
Jan 18
First Quarter

Hourly Weather History & Observations

Time (CST) Temp. Windchill Dew Point Humidity Pressure Visibility Wind Dir Wind Speed Gust Speed Precip Events Conditions
12:14 AM 10.4 °F -0.4 °F 5.0 °F 79% 30.03 in 10.0 mi SSW 6.9 mph - N/A   Scattered Clouds
12:34 AM 10.4 °F -0.4 °F 5.0 °F 79% 30.02 in 10.0 mi South 6.9 mph - N/A   Scattered Clouds
12:54 AM 10.4 °F -2.4 °F 5.0 °F 79% 30.02 in 10.0 mi SSW 9.2 mph - N/A   Clear
1:14 AM 12.2 °F 2.9 °F 6.8 °F 79% 30.02 in 10.0 mi SSW 5.8 mph - N/A   Scattered Clouds
1:34 AM 10.4 °F 0.8 °F 6.8 °F 85% 30.02 in 10.0 mi SSW 5.8 mph - N/A   Clear
1:54 AM 10.4 °F 0.8 °F 5.0 °F 79% 30.01 in 10.0 mi SSW 5.8 mph - N/A   Clear
2:15 AM 8.6 °F 0.1 °F 3.2 °F 79% 30.01 in 10.0 mi South 4.6 mph - N/A   Clear
2:34 AM 5.0 °F -8.1 °F -0.4 °F 78% 30.00 in 10.0 mi South 8.1 mph - N/A   Clear
2:54 AM 6.8 °F -3.5 °F 1.4 °F 79% 30.00 in 10.0 mi SSW 5.8 mph - N/A   Clear
3:15 AM 5.0 °F -2.1 °F -0.4 °F 78% 30.01 in 10.0 mi SW 3.5 mph - N/A   Clear
3:34 AM 6.8 °F - -0.4 °F 72% 30.01 in 10.0 mi Calm Calm - N/A   Clear
3:54 AM 6.8 °F - 1.4 °F 79% 30.00 in 10.0 mi Calm Calm - N/A   Clear
4:15 AM 5.0 °F - -0.4 °F 78% 30.00 in 10.0 mi Calm Calm - N/A   Clear
4:34 AM 6.8 °F - 1.4 °F 79% 30.00 in 10.0 mi Calm Calm - N/A   Clear
4:54 AM 6.8 °F -2.0 °F 1.4 °F 79% 29.99 in 10.0 mi SW 4.6 mph - N/A   Clear
5:15 AM 6.8 °F -2.0 °F 1.4 °F 79% 30.00 in 10.0 mi West 4.6 mph - N/A   Clear
5:34 AM 6.8 °F -0.1 °F 1.4 °F 79% 30.00 in 10.0 mi West 3.5 mph - N/A   Clear
5:54 AM 6.8 °F -3.5 °F 1.4 °F 79% 29.99 in 10.0 mi West 5.8 mph - N/A   Clear
6:15 AM 6.8 °F -4.8 °F 1.4 °F 79% 30.01 in 10.0 mi West 6.9 mph - N/A   Clear
6:34 AM 6.8 °F -5.9 °F 1.4 °F 79% 30.01 in 10.0 mi West 8.1 mph - N/A   Clear
6:54 AM 6.8 °F -5.9 °F 1.4 °F 79% 30.03 in 10.0 mi WNW 8.1 mph - N/A   Clear
7:15 AM 6.8 °F -4.8 °F 1.4 °F 79% 30.02 in 10.0 mi WNW 6.9 mph - N/A   Clear
7:34 AM 6.8 °F -4.8 °F 1.4 °F 79% 30.01 in 10.0 mi WNW 6.9 mph - N/A   Clear
7:54 AM 6.8 °F -3.5 °F 1.4 °F 79% 30.02 in 10.0 mi WNW 5.8 mph - N/A   Clear
8:15 AM 6.8 °F -2.0 °F 1.4 °F 79% 30.03 in 10.0 mi WNW 4.6 mph - N/A   Clear
8:34 AM 6.8 °F -4.8 °F 1.4 °F 79% 30.04 in 10.0 mi WNW 6.9 mph - N/A   Clear
8:54 AM 8.6 °F -2.6 °F 3.2 °F 79% 30.05 in 10.0 mi WNW 6.9 mph - N/A   Clear
9:15 AM 8.6 °F -5.5 °F 3.2 °F 79% 30.05 in 7.0 mi NW 10.4 mph - N/A Snow Light Snow
9:34 AM 8.6 °F -4.7 °F 3.2 °F 79% 30.06 in 5.0 mi NNW 9.2 mph - N/A Snow Light Snow
9:54 AM 8.6 °F -6.3 °F 3.2 °F 79% 30.08 in 10.0 mi NW 11.5 mph - N/A   Mostly Cloudy
10:15 AM 8.6 °F -7.0 °F 3.2 °F 79% 30.08 in 7.0 mi NNW 12.7 mph - N/A Snow Light Snow
10:34 AM 8.6 °F -7.0 °F 3.2 °F 79% 30.08 in 7.0 mi NNW 12.7 mph - N/A Snow Light Snow
10:54 AM 8.6 °F -7.7 °F 3.2 °F 79% 30.08 in 7.0 mi NNW 13.8 mph - N/A Snow Light Snow
11:15 AM 10.4 °F -4.8 °F 3.2 °F 73% 30.07 in 4.0 mi NNW 12.7 mph - N/A Snow Light Snow
11:34 AM 10.4 °F -6.0 °F 3.2 °F 73% 30.07 in 4.0 mi NNW 15.0 mph - N/A Snow Light Snow
11:55 AM 10.4 °F -6.0 °F 3.2 °F 73% 30.07 in 5.0 mi NNW 15.0 mph - N/A Snow Light Snow
12:14 PM 10.4 °F -6.0 °F 5.0 °F 79% 30.08 in 5.0 mi NNW 15.0 mph - N/A Snow Light Snow
12:34 PM 10.4 °F -4.8 °F 5.0 °F 79% 30.07 in 5.0 mi NNW 12.7 mph - N/A Snow Light Snow
12:55 PM 10.4 °F -4.8 °F 5.0 °F 79% 30.07 in 4.0 mi NNW 12.7 mph - N/A Snow Light Snow
1:14 PM 10.4 °F -4.1 °F 5.0 °F 79% 30.07 in 7.0 mi NNW 11.5 mph - N/A Snow Light Snow
1:34 PM 12.2 °F -2.5 °F 5.0 °F 73% 30.07 in 5.0 mi NNW 12.7 mph - N/A Snow Light Snow
1:55 PM 12.2 °F -0.2 °F 6.8 °F 79% 30.07 in 7.0 mi NNW 9.2 mph - N/A   Overcast
2:14 PM 12.2 °F -2.5 °F 6.8 °F 79% 30.08 in 7.0 mi NNW 12.7 mph - N/A   Overcast
2:34 PM 12.2 °F -1.0 °F 6.8 °F 79% 30.08 in 7.0 mi NW 10.4 mph - N/A Snow Light Snow
2:55 PM 12.2 °F -0.2 °F 6.8 °F 79% 30.09 in 5.0 mi NNW 9.2 mph - N/A Snow Light Snow
3:14 PM 12.2 °F -0.2 °F 6.8 °F 79% 30.10 in 4.0 mi NW 9.2 mph - N/A Snow Light Snow
3:34 PM 12.2 °F -1.8 °F 6.8 °F 79% 30.11 in 4.0 mi NW 11.5 mph - N/A Snow Light Snow
3:55 PM 12.2 °F -1.0 °F 6.8 °F 79% 30.11 in 5.0 mi NW 10.4 mph - N/A Snow Light Snow
4:14 PM 12.2 °F -1.0 °F 6.8 °F 79% 30.12 in 7.0 mi NW 10.4 mph - N/A Snow Light Snow
4:34 PM 12.2 °F 0.7 °F 6.8 °F 79% 30.13 in 7.0 mi NW 8.1 mph - N/A Snow Light Snow
4:55 PM 12.2 °F -1.0 °F 6.8 °F 79% 30.14 in 10.0 mi NNW 10.4 mph - N/A Snow Light Snow
5:14 PM 12.2 °F -1.0 °F 6.8 °F 79% 30.14 in 10.0 mi NNW 10.4 mph - N/A Snow Light Snow
5:34 PM 10.4 °F -2.4 °F 5.0 °F 79% 30.14 in 10.0 mi North 9.2 mph - N/A Snow Light Snow
5:55 PM 8.6 °F -3.7 °F 1.4 °F 73% 30.15 in 10.0 mi North 8.1 mph - N/A   Mostly Cloudy
6:14 PM 8.6 °F -5.5 °F 3.2 °F 79% 30.16 in 10.0 mi North 10.4 mph - N/A   Mostly Cloudy
6:34 PM 6.8 °F -6.9 °F 1.4 °F 79% 30.16 in 10.0 mi NNW 9.2 mph - N/A   Scattered Clouds
6:55 PM 8.6 °F -3.7 °F 1.4 °F 73% 30.17 in 7.0 mi NW 8.1 mph - N/A Snow Light Snow
7:14 PM 8.6 °F -1.3 °F 3.2 °F 79% 30.17 in 5.0 mi WNW 5.8 mph - N/A Snow Light Snow
7:34 PM 6.8 °F -4.8 °F 1.4 °F 79% 30.18 in 2.5 mi WNW 6.9 mph - N/A Snow Light Snow
7:54 PM 6.8 °F -4.8 °F -0.4 °F 72% 30.18 in 7.0 mi WNW 6.9 mph - N/A Snow Light Snow
8:14 PM 5.0 °F -5.6 °F -0.4 °F 78% 30.18 in 10.0 mi WNW 5.8 mph - N/A   Scattered Clouds
8:35 PM 3.2 °F -9.1 °F -2.2 °F 78% 30.18 in 10.0 mi WNW 6.9 mph - N/A   Clear
8:54 PM 1.4 °F -8.3 °F -2.2 °F 85% 30.18 in 10.0 mi WNW 4.6 mph - N/A   Clear
9:14 PM 1.4 °F -8.3 °F -2.2 °F 85% 30.18 in 10.0 mi WNW 4.6 mph - N/A   Clear
9:35 PM 1.4 °F -11.3 °F -4.0 °F 78% 30.19 in 10.0 mi West 6.9 mph - N/A   Clear
9:54 PM -0.4 °F -12.0 °F -5.8 °F 78% 30.18 in 10.0 mi WNW 5.8 mph - N/A   Clear
10:14 PM -0.4 °F -13.4 °F -5.8 °F 78% 30.19 in 10.0 mi NW 6.9 mph - N/A   Clear
10:34 PM -2.2 °F -12.5 °F -7.6 °F 78% 30.18 in 10.0 mi NW 4.6 mph - N/A   Clear
10:54 PM -2.2 °F -12.5 °F -7.6 °F 78% 30.19 in 10.0 mi WNW 4.6 mph - N/A   Clear
11:13 PM -2.2 °F -14.2 °F -7.6 °F 78% 30.18 in 10.0 mi NW 5.8 mph - N/A   Clear
11:34 PM -2.2 °F -10.4 °F -7.6 °F 78% 30.19 in 10.0 mi WNW 3.5 mph - N/A   Clear
11:54 PM -4.0 °F -14.6 °F -9.4 °F 78% 30.18 in 10.0 mi NW 4.6 mph - N/A   Clear